Date String (YYYY-MM-DD hh:mm:ss) UTC,Instrument flags,absolute air pressure of the measurement (hPa),sample flow rate (lpm),inlet stack bypass flow (lpm),air temperature of the measurement (°C),ambient temperature measured by the external sensor (°C),aerosol sample conditioner tube jacket temperature (°C),OPC LED temperature (°C),internal box temperature (°C),relative humidity of the measurement (%),span deviation,mass concentration of particles derived from Lorenz-Mie calculation of OPC scattering (μg/m³),mass concentration of particles derived from Lorenz-Mie calculation of OPC scattering (μg/m³),mass concentration of particles derived from Lorenz-Mie calculation of OPC scattering (μg/m³)
DateTimeUTC,F1_M11,P_M11,Q1_M11,Q2_M11,T1_M11,T2_M11,T3_M11,T4_M11,T5_M11,U1_M11,ZSPAN_M11,X2_M11,X0_M11,X1_M11
2023-09-06 09:00:00,SystemResetWarning,0834.4,5.01,000.00,028.5,024.2,000.0,036.9,029.4,24.5,0002.2,0024.34,0035.23,0023.22
2023-09-06 09:01:00,SystemResetWarning,0834.5,5.00,000.00,028.3,024.5,000.0,036.9,029.4,24.9,0002.3,0024.36,0034.80,0023.25
2023-09-06 09:02:00,SystemResetWarning,0834.5,5.01,000.00,028.3,024.9,000.0,036.9,029.4,25.1,0002.3,0024.37,0035.11,0023.28
2023-09-06 09:03:00,SystemResetWarning,0834.5,5.00,000.00,028.2,025.2,000.0,036.9,029.5,25.1,0002.3,0024.43,0036.24,0023.35
2023-09-06 09:04:00,SystemResetWarning,0834.5,5.00,000.00,028.2,025.6,000.0,036.8,029.5,25.1,0002.1,0024.44,0036.18,0023.41
2023-09-06 09:05:00,SystemResetWarning,0834.5,5.00,000.00,028.2,025.8,000.0,036.8,029.5,25.1,0002.1,0024.52,0036.49,0023.46
2023-09-06 09:06:00,SystemResetWarning,0834.5,5.00,000.00,028.2,026.0,000.0,036.8,029.6,25.2,0002.0,0024.50,0036.44,0023.45
2023-09-06 09:07:00,SystemResetWarning,0834.5,5.00,000.00,028.2,026.2,000.0,036.8,029.6,25.2,0002.1,0024.45,0036.04,0023.38
2023-09-06 09:08:00,SystemResetWarning,0834.5,5.00,000.00,028.2,026.4,000.0,036.8,029.6,25.2,0002.0,0024.40,0035.39,0023.31
2023-09-06 09:09:00,SystemResetWarning,0834.5,5.00,000.00,028.2,026.5,000.0,036.8,029.7,25.1,0002.0,0024.39,0035.12,0023.25
2023-09-06 09:10:00,SystemResetWarning,0834.5,5.00,000.00,028.2,026.6,000.0,036.7,029.7,25.1,0001.9,0024.38,0035.85,0023.22
2023-09-06 09:11:00,SystemResetWarning,0834.5,4.99,000.00,028.2,026.7,000.0,036.7,029.7,25.1,0002.0,0024.35,0035.69,0023.16
2023-09-06 09:12:00,SystemResetWarning,0834.5,5.00,000.00,028.2,026.8,000.0,036.7,029.8,25.1,0002.1,0024.28,0035.77,0023.06
2023-09-06 09:13:00,SystemResetWarning,0834.5,5.00,000.00,028.3,026.8,000.0,036.7,029.8,25.0,0002.2,0024.13,0035.42,0022.92
2023-09-06 09:14:00,SystemResetWarning,0834.4,5.00,000.00,028.3,026.9,000.0,036.7,029.8,25.0,0002.2,0024.05,0034.56,0022.81
2023-09-06 09:15:00,SystemResetWarning,0834.4,5.00,000.00,028.3,026.9,000.0,036.7,029.8,24.9,0002.3,0023.98,0034.43,0022.73
2023-09-06 09:16:00,SystemResetWarning,0834.4,5.00,000.00,028.3,026.9,000.0,036.7,029.9,24.9,0002.4,0023.85,0034.49,0022.60
2023-09-06 09:17:00,SystemResetWarning,0834.4,5.00,000.00,028.3,027.0,000.0,036.7,029.9,24.9,0002.4,0023.70,0034.48,0022.46
2023-09-06 09:18:00,SystemResetWarning,0834.4,5.00,000.00,028.3,027.0,000.0,036.7,029.9,24.9,0002.4,0023.58,0034.28,0022.35
2023-09-06 09:19:00,SystemResetWarning,0834.4,5.00,000.00,028.4,027.0,000.0,036.7,029.9,24.9,0002.4,0023.54,0034.53,0022.29
2023-09-06 09:20:00,SystemResetWarning,0834.4,5.00,000.00,028.4,027.1,000.0,036.7,029.9,24.9,0002.5,0023.45,0034.36,0022.21
2023-09-06 09:21:00,SystemResetWarning,0834.4,5.00,000.00,028.4,027.1,000.0,036.8,029.9,24.9,0002.5,0023.34,0033.60,0022.14
2023-09-06 09:22:00,SystemResetWarning,0834.5,5.00,000.00,028.4,027.1,000.0,036.8,030.0,25.0,0002.4,0023.23,0033.37,0022.06
2023-09-06 09:23:00,SystemResetWarning,0834.5,4.99,000.00,028.4,027.1,000.0,036.8,030.0,24.9,0002.3,0023.18,0033.19,0022.00
2023-09-06 09:24:00,SystemResetWarning,0834.5,4.99,000.00,028.4,027.2,000.0,036.8,030.0,24.9,0002.3,0023.13,0032.92,0021.97
2023-09-06 09:25:00,SystemResetWarning,0834.6,4.99,000.00,028.5,027.2,000.0,036.8,030.0,24.9,0002.3,0023.04,0032.41,0021.94
2023-09-06 09:26:00,SystemResetWarning,0834.5,4.99,000.00,028.5,027.2,000.0,036.8,030.0,24.9,0002.2,0022.96,0032.97,0021.87
2023-09-06 09:27:00,SystemResetWarning,0834.5,5.00,000.00,028.5,027.2,000.0,036.8,030.1,24.7,0002.2,0022.92,0032.67,0021.86
2023-09-06 09:28:00,SystemResetWarning,0834.5,5.00,000.00,028.5,027.2,000.0,036.8,030.1,24.6,0002.3,0022.94,0032.47,0021.83
2023-09-06 09:29:00,SystemResetWarning,0834.5,5.00,000.00,028.5,027.3,000.0,036.8,030.1,24.6,0002.2,0023.00,0032.80,0021.88
2023-09-06 09:30:00,SystemResetWarning,0834.5,5.00,000.00,028.5,027.3,000.0,036.8,030.1,24.5,0002.4,0022.98,0033.69,0021.89
2023-09-06 09:31:00,SystemResetWarning,0834.5,5.00,000.00,028.5,027.3,000.0,036.9,030.1,24.4,0002.4,0022.92,0034.15,0021.87
2023-09-06 09:32:00,SystemResetWarning,0834.4,5.01,000.00,028.6,027.3,000.0,036.9,030.2,24.4,0002.4,0022.87,0034.09,0021.81
2023-09-06 09:33:00,SystemResetWarning,0834.4,5.00,000.00,028.6,027.3,000.0,036.9,030.2,24.4,0002.4,0022.82,0033.91,0021.79
2023-09-06 09:34:00,SystemResetWarning,0834.4,5.01,000.00,028.6,027.3,000.0,036.9,030.2,24.4,0002.3,0022.74,0034.74,0021.77
2023-09-06 09:35:00,SystemResetWarning,0834.5,5.00,000.00,028.6,027.4,000.0,036.9,030.2,24.4,0002.2,0022.79,0035.04,0021.78
2023-09-06 09:36:00,SystemResetWarning,0834.5,4.99,000.00,028.6,027.4,000.0,036.9,030.2,24.4,0002.3,0022.85,0035.15,0021.80
2023-09-06 09:37:00,SystemResetWarning,0834.5,4.98,000.00,028.6,027.4,000.0,036.9,030.2,24.3,0002.2,0022.83,0034.51,0021.81
2023-09-06 09:38:00,SystemResetWarning,0834.5,5.00,000.00,028.6,027.4,000.0,036.9,030.2,24.3,0002.2,0022.84,0034.08,0021.82
2023-09-06 09:39:00,SystemResetWarning,0834.5,5.00,000.00,028.7,027.4,000.0,036.9,030.2,24.4,0002.2,0022.81,0034.32,0021.84
2023-09-06 09:40:00,SystemResetWarning,0834.5,5.00,000.00,028.7,027.4,000.0,037.0,030.3,24.3,0002.3,0022.76,0034.64,0021.80
2023-09-06 09:41:00,SystemResetWarning,0834.5,5.01,000.00,028.7,027.4,000.0,037.0,030.3,24.3,0002.2,0022.69,0034.14,0021.77
2023-09-06 09:42:00,SystemResetWarning,0834.5,5.01,000.00,028.7,027.4,000.0,037.0,030.3,24.3,0002.1,0022.65,0033.43,0021.74
2023-09-06 09:43:00,SystemResetWarning,0834.5,5.00,000.00,028.7,027.4,000.0,037.0,030.3,24.2,0002.0,0022.62,0033.11,0021.72
2023-09-06 09:44:00,SystemResetWarning,0834.5,4.99,000.00,028.7,027.4,000.0,037.0,030.3,24.2,0002.1,0022.64,0033.01,0021.71
2023-09-06 09:45:00,SystemResetWarning,0834.5,5.00,000.00,028.7,027.4,000.0,037.0,030.3,24.1,0002.3,0022.73,0032.39,0021.73
2023-09-06 09:46:00,SystemResetWarning,0834.5,4.99,000.00,028.7,027.5,000.0,037.0,030.3,24.1,0002.2,0022.70,0032.02,0021.70
2023-09-06 09:47:00,SystemResetWarning,0834.8,5.00,000.00,028.8,027.5,000.0,037.0,030.3,24.1,0002.2,0022.63,0032.19,0021.67
2023-09-06 09:48:00,SystemResetWarning,0835.0,5.00,000.00,028.8,027.5,000.0,037.0,030.3,24.1,0002.3,0022.59,0032.25,0021.63
2023-09-06 09:49:00,SystemResetWarning,0835.0,5.00,000.00,028.8,027.5,000.0,037.1,030.3,24.1,0002.4,0022.51,0032.35,0021.57
2023-09-06 09:50:00,SystemResetWarning,0835.0,5.01,000.00,028.8,027.5,000.0,037.1,030.3,24.1,0002.3,0022.46,0032.43,0021.54
2023-09-06 09:51:00,SystemResetWarning,0834.9,5.00,000.00,028.8,027.5,000.0,037.1,030.4,24.2,0002.3,0022.42,0031.60,0021.51
2023-09-06 09:52:00,SystemResetWarning,0835.1,5.01,000.00,028.8,027.5,000.0,037.1,030.4,24.2,0002.2,0022.40,0031.83,0021.46
2023-09-06 09:53:00,SystemResetWarning,0834.7,5.00,000.00,028.8,027.5,000.0,037.1,030.4,24.0,0002.2,0022.27,0031.44,0021.33
2023-09-06 09:54:00,SystemResetWarning,0835.1,4.99,000.00,028.8,027.5,000.0,037.1,030.4,24.0,0002.2,0022.10,0030.85,0021.16
2023-09-06 09:55:00,SystemResetWarning,0835.0,4.99,000.00,028.8,027.5,000.0,037.1,030.4,24.0,0002.3,0021.97,0030.84,0021.01
2023-09-06 09:56:00,SystemResetWarning,0835.0,5.00,000.00,028.8,027.5,000.0,037.1,030.4,23.9,0002.3,0021.72,0030.51,0020.79
2023-09-06 09:57:00,SystemResetWarning,0835.0,5.00,000.00,028.8,027.5,000.0,037.1,030.4,23.9,0002.3,0021.54,0030.26,0020.59
2023-09-06 09:58:00,SystemResetWarning,0834.6,5.01,000.00,028.8,027.5,000.0,037.2,030.4,24.0,0002.2,0021.42,0029.97,0020.43
2023-09-06 09:59:00,SystemResetWarning,0834.5,5.01,000.00,028.9,027.5,000.0,037.2,030.4,24.0,0002.2,0021.31,0029.72,0020.30
